STARLINK-2530 (48303 NORAD) Tracking and Keplerian Element Data

This shows tracking and keplerian element data for the satellite.

Feedback or suggestion? Click here.




ElementValue
Catalog48303
NameSTARLINK-2530
Epoch Orbit195
Epoch Day173.83334491
Epoch Year2021
RAAN258.8079
Inclination53.0511
Eccentricity0.0001203
Argument of Perigee86.3194
Mean Anonmoly193.9636
Mean Motion15.40429995
Decay Rate-0.01084054
L11 48303U 21036AD 21173.83334491 -.01084054 00000-0 -28750-1 0 9996
L22 48303 53.0511 258.8079 0001203 86.3194 193.9636 15.40429995 1951

Live tracking and technical data element details for STARLINK-2530 (NORAD 48303). STARLINK-2530 can be tracked NOW for your location showing map with azimuth and elevation plus other details from your city location.

Track the satellite on the map from your city or location and see movement details for azimuth, elevation, latitude, longitude, range, height, and movement on the map or in text.







IsCatalogInMostPopularTable: catalog: 48303, numindb: 24
Update: records affected: 1



GetName: 48303 STARLINK-2530

Hit Count: updated at: Thu, 24 Jun 2021 04:14:10 GMT